This is the latest recevied weather packets stored in our database for station/object 9M4RLD-3. If no packets are shown the sender has not sent any weather packets the latest 10 day(s).
| Time | Temp. | Humidity | Pressure | Rain* | Wind** | Luminosity | Snow |
|---|---|---|---|---|---|---|---|
| 1777637438 | 22.22° C | 100% | 1033 hPa | - | - | - | - |
| 1777636238 | 22.22° C | 100% | 1032.7 hPa | - | - | - | - |
| 1777635038 | 21.67° C | 100% | 1032.6 hPa | - | - | - | - |
| 1777633838 | 21.67° C | 100% | 1032.3 hPa | - | - | - | - |
| 1777632638 | 21.67° C | 100% | 1031.9 hPa | - | - | - | - |
| 1777631438 | 21.67° C | 100% | 1031.6 hPa | - | - | - | - |
| 1777630238 | 21.67° C | 100% | 1031.5 hPa | - | - | - | - |
| 1777629039 | 22.22° C | 100% | 1031.7 hPa | - | - | - | - |
| 1777627838 | 22.22° C | 100% | 1031.8 hPa | - | - | - | - |
| 1777626638 | 22.78° C | 100% | 1031.8 hPa | - | - | - | - |
| 1777625438 | 22.78° C | 100% | 1031.6 hPa | - | - | - | - |
| 1777624238 | 23.33° C | 100% | 1031.8 hPa | - | - | - | - |
| 1777623038 | 24.44° C | 100% | 1031.6 hPa | - | - | - | - |
| 1777621838 | 26.11° C | 100% | 1031.6 hPa | - | - | - | - |
| 1777620638 | 27.22° C | 100% | 1031.6 hPa | - | - | - | - |
| 1777619438 | 27.22° C | 100% | 1031.6 hPa | - | - | - | - |
| 1777618238 | 27.22° C | 100% | 1032.4 hPa | - | - | - | - |
| 1777617038 | 27.78° C | 100% | 1032.1 hPa | - | - | - | - |
| 1777615838 | 28.89° C | 100% | 1032.8 hPa | - | - | - | - |
| 1777614638 | 29.44° C | 100% | 1033 hPa | - | - | - | - |
| 1777613437 | 30° C | 100% | 1033.3 hPa | - | - | - | - |
| 1777612237 | 31.67° C | 100% | 1033.7 hPa | - | - | - | - |
| 1777611037 | 31.67° C | 100% | 1034.1 hPa | - | - | - | - |
| 1777609837 | 30.56° C | 100% | 1034.5 hPa | - | - | - | - |
| 1777608637 | 30° C | 100% | 1034.7 hPa | - | - | - | - |
* Rain since midnight (hover to see other rain measurements)
** Current wind speed in m/s (hover to see current wind gust speed)